| time (UTC) | temp F | wind direction | speed MPH | gust MPH | rain 1hr in | rain 24hr in | rain mn in | humidity % | barometer mb |
| 20260905010105 | 61 | 331 | 0.0 | 0.0 | 0.00 | 0.00 | 0.00 | 1 | 1009.6 |
| 20260905004548 | 61 | 340 | 0.0 | 0.0 | 0.00 | 0.00 | 0.00 | 1 | 1009.6 |
| 20260905003043 | 62 | 144 | 0.0 | 0.0 | 0.00 | 0.00 | 0.00 | 1 | 1009.7 |
| 20260905001547 | 63 | 173 | 0.0 | 0.0 | 0.00 | 0.00 | 0.00 | 1 | 1009.5 |
| 20260905000041 | 64 | 155 | 0.0 | 0.0 | 0.00 | 0.00 | 0.00 | 6 | 1009.2 |
| 20260904234533 | 65 | 161 | 0.0 | 0.0 | 0.00 | 0.00 | 0.00 | 15 | 1009.1 |
| 20260904233024 | 66 | 168 | 0.0 | 0.0 | 0.00 | 0.00 | 0.00 | 26 | 1009.0 |
| 20260904231525 | 67 | 143 | 0.0 | 3.0 | 0.00 | 0.00 | 0.00 | 44 | 1008.9 |
| 20260904230034 | 69 | 145 | 1.0 | 3.0 | 0.00 | 0.00 | 0.00 | 55 | 1008.9 |
| 20260904224510 | 70 | 309 | 2.0 | 5.0 | 0.00 | 0.00 | 0.00 | 58 | 1008.9 |
| 20260904223005 | 71 | 340 | 2.0 | 5.0 | 0.00 | 0.00 | 0.00 | 58 | 1008.9 |
| 20260904221505 | 72 | 25 | 5.0 | 11.0 | 0.00 | 0.00 | 0.00 | 58 | 1008.6 |
| 20260904220037 | 72 | 66 | 3.0 | 14.0 | 0.00 | 0.00 | 0.00 | 58 | 1008.6 |
| 20260904214534 | 73 | 331 | 5.0 | 10.0 | 0.00 | 0.00 | 0.00 | 57 | 1008.5 |
| 20260904213030 | 73 | 310 | 6.0 | 13.0 | 0.00 | 0.00 | 0.00 | 57 | 1008.6 |
| 20260904211529 | 73 | 360 | 5.0 | 14.0 | 0.00 | 0.00 | 0.00 | 58 | 1008.5 |
| 20260904210031 | 73 | 316 | 4.0 | 10.0 | 0.00 | 0.00 | 0.00 | 57 | 1008.7 |
| 20260904204528 | 74 | 24 | 5.0 | 15.0 | 0.00 | 0.00 | 0.00 | 56 | 1008.7 |
| 20260904203126 | 75 | 101 | 2.0 | 8.0 | 0.00 | 0.00 | 0.00 | 56 | 1008.7 |
| 20260904201558 | 75 | 346 | 5.0 | 11.0 | 0.00 | 0.00 | 0.00 | 54 | 1008.9 |
| 20260904200100 | 75 | 348 | 4.0 | 11.0 | 0.00 | 0.00 | 0.00 | 55 | 1009.0 |
| 20260904194552 | 74 | 5 | 5.0 | 15.0 | 0.00 | 0.00 | 0.00 | 55 | 1008.9 |
| 20260904193051 | 75 | 327 | 8.0 | 19.0 | 0.00 | 0.00 | 0.00 | 54 | 1009.0 |
| 20260904191550 | 75 | 5 | 1.0 | 12.0 | 0.00 | 0.00 | 0.00 | 55 | 1009.1 |
| 20260904190049 | 75 | 11 | 4.0 | 12.0 | 0.00 | 0.00 | 0.00 | 55 | 1009.0 |
| 20260904184604 | 75 | 5 | 4.0 | 11.0 | 0.00 | 0.00 | 0.00 | 54 | 1009.2 |
| 20260904183043 | 76 | 11 | 3.0 | 9.0 | 0.00 | 0.00 | 0.00 | 55 | 1009.3 |
| 20260904181539 | 75 | 344 | 4.0 | 10.0 | 0.00 | 0.00 | 0.00 | 56 | 1009.3 |
| 20260904180039 | 75 | 302 | 3.0 | 8.0 | 0.00 | 0.00 | 0.00 | 57 | 1009.2 |
| 20260904174607 | 73 | 258 | 6.0 | 12.0 | 0.00 | 0.00 | 0.00 | 58 | 1009.6 |
| 20260904173032 | 74 | 308 | 6.0 | 13.0 | 0.00 | 0.00 | 0.00 | 58 | 1009.8 |
| 20260904171533 | 74 | 349 | 6.0 | 12.0 | 0.00 | 0.00 | 0.00 | 58 | 1009.7 |
| 20260904170044 | 73 | 336 | 3.0 | 11.0 | 0.00 | 0.00 | 0.00 | 58 | 1010.0 |
| 20260904164528 | 73 | 321 | 4.0 | 10.0 | 0.00 | 0.00 | 0.00 | 58 | 1009.7 |
| 20260904163032 | 73 | 314 | 3.0 | 9.0 | 0.00 | 0.00 | 0.00 | 56 | 1009.7 |
| 20260904161524 | 73 | 227 | 4.0 | 12.0 | 0.00 | 0.00 | 0.00 | 57 | 1009.8 |
| 20260904160022 | 73 | 329 | 2.0 | 8.0 | 0.00 | 0.00 | 0.00 | 55 | 1010.0 |
| 20260904154518 | 72 | 15 | 6.0 | 11.0 | 0.00 | 0.00 | 0.00 | 55 | 1010.0 |
| 20260904153015 | 72 | 350 | 6.0 | 13.0 | 0.00 | 0.00 | 0.00 | 55 | 1010.2 |
| 20260904151514 | 72 | 273 | 4.0 | 12.0 | 0.00 | 0.00 | 0.00 | 52 | 1010.2 |
| 20260904150014 | 72 | 26 | 4.0 | 12.0 | 0.00 | 0.00 | 0.00 | 46 | 1010.2 |
| 20260904144511 | 70 | 14 | 6.0 | 11.0 | 0.00 | 0.00 | 0.00 | 38 | 1010.4 |
| 20260904143010 | 70 | 258 | 4.0 | 10.0 | 0.00 | 0.00 | 0.00 | 23 | 1010.5 |
| 20260904141509 | 69 | 53 | 3.0 | 11.0 | 0.00 | 0.00 | 0.00 | 8 | 1010.6 |
| 20260904140008 | 69 | 304 | 1.0 | 9.0 | 0.00 | 0.00 | 0.00 | 1 | 1010.4 |
| 20260904134505 | 69 | 315 | 2.0 | 8.0 | 0.00 | 0.00 | 0.00 | 1 | 1010.2 |
| 20260904133005 | 68 | 15 | 1.0 | 5.0 | 0.00 | 0.00 | 0.00 | 1 | 1010.3 |
| 20260904131504 | 66 | 36 | 2.0 | 8.0 | 0.00 | 0.00 | 0.00 | 1 | 1010.3 |
| 20260904130001 | 65 | 13 | 2.0 | 4.0 | 0.00 | 0.00 | 0.00 | 1 | 1010.5 |
| 20260904124557 | 64 | 304 | 2.0 | 6.0 | 0.00 | 0.00 | 0.00 | 1 | 1010.5 |
| 20260904123050 | 63 | 299 | 1.0 | 3.0 | 0.00 | 0.00 | 0.00 | 1 | 1010.6 |
| 20260904121546 | 63 | 43 | 0.0 | 2.0 | 0.00 | 0.00 | 0.00 | 1 | 1010.6 |
| 20260904120049 | 63 | 88 | 0.0 | 1.0 | 0.00 | 0.00 | 0.00 | 1 | 1010.5 |
| 20260904114536 | 62 | 142 | 0.0 | 1.0 | 0.00 | 0.00 | 0.00 | 1 | 1010.3 |
| 20260904113032 | 61 | 143 | 0.0 | 0.0 | 0.00 | 0.00 | 0.00 | 1 | 1010.3 |
| 20260904111525 | 60 | 144 | 0.0 | 0.0 | 0.00 | 0.00 | 0.00 | 1 | 1010.1 |
| 20260904110021 | 61 | 144 | 0.0 | 0.0 | 0.00 | 0.00 | 0.00 | 1 | 1010.0 |
| 20260904104550 | 61 | 133 | 0.0 | 1.0 | 0.00 | 0.00 | 0.00 | 1 | 1009.6 |
| 20260904103044 | 61 | 163 | 0.0 | 2.0 | 0.00 | 0.00 | 0.00 | 1 | 1009.6 |
| 20260904101512 | 61 | 161 | 0.0 | 1.0 | 0.00 | 0.00 | 0.00 | 1 | 1009.4 |
| 20260904100005 | 62 | 163 | 0.0 | 1.0 | 0.00 | 0.00 | 0.00 | 1 | 1009.4 |
| 20260904094604 | 62 | 173 | 1.0 | 3.0 | 0.00 | 0.00 | 0.00 | 1 | 1009.3 |
| 20260904093103 | 62 | 157 | 0.0 | 3.0 | 0.00 | 0.00 | 0.00 | 1 | 1009.4 |
| 20260904091550 | 62 | 169 | 0.0 | 1.0 | 0.00 | 0.00 | 0.00 | 1 | 1009.1 |
| 20260904090044 | 62 | 167 | 0.0 | 0.0 | 0.00 | 0.00 | 0.00 | 1 | 1009.0 |
| 20260904084511 | 63 | 171 | 0.0 | 1.0 | 0.00 | 0.00 | 0.00 | 1 | 1008.9 |
| 20260904083006 | 63 | 171 | 1.0 | 3.0 | 0.00 | 0.00 | 0.00 | 1 | 1008.9 |
| 20260904081508 | 63 | 155 | 0.0 | 1.0 | 0.00 | 0.00 | 0.00 | 1 | 1008.9 |
| 20260904080004 | 63 | 155 | 0.0 | 0.0 | 0.00 | 0.00 | 0.00 | 1 | 1008.7 |
| 20260904074558 | 63 | 155 | 0.0 | 0.0 | 0.00 | 0.00 | 0.00 | 1 | 1008.7 |
| 20260904073058 | 64 | 155 | 0.0 | 0.0 | 0.00 | 0.00 | 0.00 | 1 | 1008.5 |
| 20260904071554 | 64 | 155 | 0.0 | 0.0 | 0.00 | 0.00 | 0.00 | 1 | 1008.5 |
| 20260904070045 | 64 | 155 | 0.0 | 0.0 | 0.00 | 0.00 | 0.00 | 1 | 1008.6 |
| 20260904064538 | 64 | 155 | 0.0 | 0.0 | 0.00 | 0.00 | 0.00 | 1 | 1008.5 |
| 20260904063039 | 65 | 155 | 0.0 | 0.0 | 0.00 | 0.00 | 0.00 | 1 | 1008.7 |
| 20260904061531 | 65 | 155 | 0.0 | 0.0 | 0.00 | 0.00 | 0.00 | 1 | 1008.8 |
| 20260904060028 | 65 | 126 | 0.0 | 0.0 | 0.00 | 0.00 | 0.00 | 1 | 1009.1 |
| 20260904054526 | 65 | 126 | 0.0 | 0.0 | 0.00 | 0.00 | 0.00 | 1 | 1009.4 |
| 20260904053029 | 65 | 126 | 0.0 | 0.0 | 0.00 | 0.01 | 0.00 | 1 | 1009.4 |
| 20260904051525 | 65 | 126 | 0.0 | 0.0 | 0.00 | 0.01 | 0.00 | 1 | 1009.6 |
| 20260904050013 | 65 | 126 | 0.0 | 0.0 | 0.00 | 0.01 | 0.00 | 1 | 1009.6 |
| 20260904044508 | 65 | 126 | 0.0 | 0.0 | 0.00 | 0.01 | 0.00 | 1 | 1009.6 |
| 20260904043004 | 65 | 355 | 0.0 | 0.0 | 0.00 | 0.01 | 0.00 | 1 | 1009.3 |
| 20260904041606 | 65 | 355 | 0.0 | 0.0 | 0.00 | 0.01 | 0.00 | 1 | 1009.3 |
| 20260904040054 | 65 | 355 | 0.0 | 0.0 | 0.00 | 0.01 | 0.00 | 1 | 1009.6 |
| 20260904034549 | 65 | 351 | 0.0 | 0.0 | 0.00 | 0.01 | 0.00 | 1 | 1009.6 |
| 20260904033100 | 65 | 350 | 0.0 | 0.0 | 0.00 | 0.10 | 0.00 | 1 | 1009.7 |
| 20260904031540 | 65 | 351 | 0.0 | 0.0 | 0.00 | 0.10 | 0.00 | 1 | 1009.8 |
| 20260904030006 | 66 | 355 | 0.0 | 0.0 | 0.00 | 0.10 | 0.00 | 1 | 1009.8 |
| 20260904024502 | 66 | 275 | 0.0 | 0.0 | 0.00 | 0.10 | 0.00 | 1 | 1009.9 |
| 20260904023054 | 66 | 284 | 0.0 | 0.0 | 0.00 | 0.13 | 0.00 | 1 | 1009.8 |
| 20260904021550 | 67 | 286 | 0.0 | 0.0 | 0.00 | 0.13 | 0.00 | 1 | 1010.0 |
| 20260904020058 | 67 | 348 | 0.0 | 0.0 | 0.00 | 0.13 | 0.00 | 1 | 1010.4 |
| 20260904014610 | 67 | 350 | 0.0 | 0.0 | 0.00 | 0.13 | 0.00 | 1 | 1010.2 |
| 20260904013015 | 67 | 343 | 0.0 | 0.0 | 0.00 | 0.13 | 0.00 | 1 | 1010.2 |
| 20260904011503 | 68 | 355 | 0.0 | 0.0 | 0.00 | 0.13 | 0.00 | 1 | 1010.2 |